[[{"header":{"parameterUnit":"m.s-1","parameterCategory":1,"la1":30.2991,"la2":30.254,"lo1":-89.0895,"lo2":-89.0444,"dy":0.0017,"dx":0.0017,"nx":28,"ny":28,"refTime":"2023-04-22T21:00:00:Z","depth":0,"parameterNumber":2,"parameterNumberName":"U-component_of_WINDS"},"data":[0,0,0,0,0,0,0,0,0,0,0,0,0,0,0,0,0,0,0,0,0,0,0,0,0,0,0,0,0,0,0,0,0,0,0,0,0,0,0,0,0,0,0,0,0,0,0,0,0,0,0,0,0,0,0,0,0,0,-1.9917,-1.9917,0,-1.9919,-1.9919,-1.9919,-1.9847,-1.9845,-1.9843,-1.9841,-1.9845,-1.9846,-1.9848,0,0,0,0,0,0,0,0,0,0,0,0,0,-1.9851,-1.9852,-1.9917,-1.9917,-1.9917,-1.9919,-1.9919,-1.9919,-1.9847,-1.9845,-1.9843,-1.9841,-1.9844,-1.9846,-1.9848,0,0,0,0,0,0,0,0,0,0,0,0,0,-1.9869,-1.9853,-1.9917,-1.9881,-1.9878,-1.9919,-1.9919,-1.9919,-1.9848,-1.9845,-1.9842,-1.9839,-1.9843,-1.9846,-1.9849,-1.9923,0,0,-1.9857,-1.9858,0,0,0,0,0,0,0,0,-1.9868,-1.9871,-1.9886,-1.9884,-1.988,-1.988,-1.9897,-1.992,-1.9849,-1.9859,-1.9841,-1.9838,-1.9859,-1.986,-1.9867,-1.9924,-1.9924,-1.9857,-1.9859,-1.986,-1.9861,0,0,0,0,0,0,0,-1.9867,-1.9871,-1.9917,-1.9887,-1.9883,-1.9865,-1.9865,-1.9901,-1.9875,-1.9858,-1.9853,-1.9854,-1.9856,-1.9864,-1.9866,-1.9924,-1.9857,-1.986,-1.9862,-1.9863,-2.0042,-2.0044,0,0,0,0,0,0,-1.987,-1.987,-1.9917,-1.9918,-1.9867,-1.9869,-1.9868,-1.9883,-1.9875,-1.987,-1.9857,-1.9851,-1.9861,-1.9863,-1.9866,-1.9953,-1.986,-1.9863,-1.9865,-2.0039,-2.0042,-2.0046,0,0,0,0,0,0,-1.9869,-1.9875,-1.9917,-1.9893,-1.9896,-1.9873,-1.989,-1.9884,-1.9892,-1.9873,-1.9868,-1.9869,-1.9859,-1.9862,-1.991,-1.9952,-1.9864,-1.9867,-2.0035,-2.004,-2.0044,-2.0128,0,0,0,0,0,0,-1.9868,-1.9875,-1.9904,-1.9894,-1.9898,-1.9961,-1.9893,-1.9886,-1.9897,-1.9889,-1.9884,-1.988,-1.9857,-1.9906,-1.9912,-1.9955,-1.9869,-2.0031,-2.0037,-2.0042,-2.0122,-2.0135,-2.0147,0,0,0,0,0,-1.9865,-1.9928,-1.9905,-1.9912,-1.9933,-1.9964,-1.9966,-1.9938,-1.9901,-1.9929,-1.9917,-1.988,-1.9946,-1.9911,-1.9918,-1.9962,-2.0028,-2.0035,-2.0042,-2.0116,-2.0132,-2.0146,0,0,0,0,0,0,-1.9944,-1.9926,-1.9901,-1.9962,-1.9965,-1.9952,-1.9987,-1.9956,-1.997,-1.9962,-1.9926,-1.9926,-1.9979,-1.9975,-1.9936,-2.0033,-1.9981,-1.9989,-2.0035,-2.005,-2.0062,-2.0063,-1.9871,0,0,0,0,0,-1.9968,-1.9994,-1.9977,-2.0032,-2.0035,-2.0011,-2.0023,-2.0,-2.0002,-2.0003,-1.9994,-1.9998,-2.0019,-2.0034,-2.0053,-2.012,-2.0118,-2.0153,-2.0166,-2.0176,-2.0185,-2.022,-2.0235,-2.0068,-2.0068,-2.0068,0,0,-2.0019,-2.0012,-2.0031,-2.0048,-2.0048,-2.0076,-2.0012,-2.0045,-2.0065,-2.0008,-2.0053,-2.0046,-2.0047,-2.0105,-2.013,-2.0103,-2.023,-2.0185,-2.0194,-2.0196,-2.0228,-2.0244,-2.0258,-2.0073,-2.0072,-2.0071,0,0,-2.0126,-2.0123,-2.0169,-2.0169,-2.0169,-2.0153,-2.0164,-2.0155,-2.0148,-2.0192,-2.0149,-2.0173,-2.021,-2.0213,-2.0219,-2.0326,-2.0293,-2.0333,-2.0399,-2.0434,-2.0447,-2.0459,-2.0497,-2.0511,-2.0341,-2.0341,-2.0341,0,-2.0189,-2.023,-2.0196,-2.0231,-2.024,-2.0188,-2.0234,-2.0237,-2.0243,-2.025,-2.022,-2.0265,-2.0263,-2.032,-2.0346,-2.0352,-2.0364,-2.0334,-2.0448,-2.0459,-2.0469,-2.0505,-2.052,-2.0346,-2.0345,-2.0345,-2.0344,0,-2.0308,-2.0336,-2.0373,-2.038,-2.0392,-2.0433,-2.0406,-2.0422,-2.0398,-2.0384,-2.0429,-2.0424,-2.044,-2.0452,-2.0429,-2.0506,-2.0489,-2.0454,-2.0401,-2.0491,-2.0524,-2.0538,-2.0353,-2.0351,-2.0349,-2.0348,0,0,-2.0466,-2.0452,-2.0467,-2.0469,-2.0464,-2.0486,-2.0524,-2.0539,-2.0554,-2.056,-2.0591,-2.0623,-2.059,-2.0597,-2.0573,-2.0604,-2.0689,-2.0564,-2.0564,-2.0589,-2.0774,-2.0802,-2.0818,-2.0666,-2.0669,-2.0671,-2.0774,0,-2.057,-2.0634,-2.0604,-2.0672,-2.0698,-2.0648,-2.0681,-2.0682,-2.067,-2.069,-2.0676,-2.07,-2.0654,-2.0658,-2.0685,-2.0673,-2.0726,-2.0665,-2.0696,-2.0697,-2.0698,-2.0836,-2.0865,-2.0963,-2.0787,-2.0789,-2.0791,0,-2.0701,-2.0712,-2.0781,-2.0771,-2.0781,-2.0811,-2.0823,-2.0842,-2.0842,-2.0831,-2.0838,-2.0807,-2.0844,-2.0789,-2.0839,-2.0798,-2.0809,-2.0804,-2.0807,-2.081,-2.0751,-2.0844,-2.0994,-2.1009,-2.0811,-2.0809,-2.0808,0,-2.0811,-2.0842,-2.0888,-2.0891,-2.088,-2.0902,-2.0899,-2.0895,-2.0906,-2.0916,-2.0923,-2.0937,-2.0945,-2.0957,-2.0931,-2.0893,-2.0984,-2.0928,-2.0976,-2.0977,-2.0999,-2.0998,-2.1154,-2.1004,-2.1004,-2.1004,-2.1003,0,-2.0931,-2.0976,-2.0937,-2.0965,-2.1013,-2.0978,-2.1027,-2.1018,-2.1016,-2.1041,-2.0999,-2.1024,-2.0987,-2.1009,-2.0988,-2.1033,-2.1036,-2.1029,-2.1023,-2.1033,-2.1034,-2.1041,-2.1034,-2.1007,-2.1007,-2.1006,-2.1005,0,-2.1063,-2.1038,-2.1085,-2.107,-2.1067,-2.1104,-2.1091,-2.1117,-2.1101,-2.1134,-2.1139,-2.1115,-2.1138,-2.1112,-2.1133,-2.1119,-2.118,-2.1163,-2.118,-2.1176,-2.1226,-2.1222,-2.1393,-2.1414,-2.1249,-2.1251,-2.1252,0,-2.1142,-2.1175,-2.1164,-2.1177,-2.1176,-2.1199,-2.121,-2.1176,-2.1189,-2.119,-2.1216,-2.1235,-2.1248,-2.1287,-2.1272,-2.1287,-2.1272,-2.133,-2.1274,-2.1283,-2.1274,-2.1273,-2.1276,-2.1342,-2.1344,-2.1346,-2.1347,0,-2.1286,-2.1271,-2.1288,-2.13,-2.1314,-2.1322,-2.1327,-2.1341,-2.1305,-2.1322,-2.1345,-2.1355,-2.1376,-2.1396,-2.1407,-2.1403,-2.137,-2.1365,-2.1377,-2.1389,-2.1397,-2.1394,-2.1213,-2.1361,-2.136,-2.1359,-2.1358,-2.1358,-2.1394,-2.1421,-2.1417,-2.1437,-2.1436,-2.1442,-2.1465,-2.1451,-2.1469,-2.1483,-2.1462,-2.149,-2.1488,-2.1499,-2.1499,-2.1521,-2.1496,-2.1514,-2.1518,-2.1524,-2.1532,-2.1393,-2.1523,-2.1522,-2.1522,-2.1522,-2.1521,0,-2.1536,-2.153,-2.1549,-2.1557,-2.1572,-2.1538,-2.1541,-2.1557,-2.1582,-2.1582,-2.1596,-2.1622,-2.164,-2.1625,-2.1641,-2.1661,-2.1646,-2.1666,-2.1665,-2.1665,-2.1553,-2.1541,-2.1678,-2.1678,-2.1678,-2.1678,-2.1678,-2.1678,-2.1612,-2.1656,-2.1641,-2.1684,-2.1678,-2.1705,-2.171,-2.1714,-2.1714,-2.1745,-2.176,-2.1749,-2.1743,-2.1758,-2.1773,-2.1768,-2.1777,-2.1803,-2.1793,-2.1688,-2.1673,-2.1658,-2.1647,-2.1804,-2.1805,-2.1903,-2.1904,-2.1905]},{"header":{"parameterUnit":"m.s-1","parameterCategory":1,"la1":30.2991,"la2":30.254,"lo1":-89.0895,"lo2":-89.0444,"dy":0.0017,"dx":0.0017,"nx":28,"ny":28,"refTime":"2023-04-22T21:00:00:Z","depth":0,"parameterNumber":3,"parameterNumberName":"V-component_of_WINDS"},"data":[0,0,0,0,0,0,0,0,0,0,0,0,0,0,0,0,0,0,0,0,0,0,0,0,0,0,0,0,0,0,0,0,0,0,0,0,0,0,0,0,0,0,0,0,0,0,0,0,0,0,0,0,0,0,0,0,0,0,-4.5979,-4.598,0,-4.606,-4.6061,-4.6062,-4.6041,-4.6039,-4.6038,-4.6036,-4.6114,-4.6117,-4.6121,0,0,0,0,0,0,0,0,0,0,0,0,0,-4.5801,-4.5804,-4.5979,-4.598,-4.5981,-4.606,-4.6061,-4.6062,-4.6041,-4.6039,-4.6037,-4.6035,-4.6113,-4.6117,-4.6121,0,0,0,0,0,0,0,0,0,0,0,0,0,-4.5879,-4.5805,-4.5979,-4.598,-4.5981,-4.606,-4.6061,-4.6062,-4.6042,-4.6039,-4.6037,-4.6035,-4.6111,-4.6116,-4.6122,-4.6202,0,0,-4.6138,-4.614,0,0,0,0,0,0,0,0,-4.5875,-4.5886,-4.5979,-4.5981,-4.5982,-4.6038,-4.6026,-4.6109,-4.6042,-4.6019,-4.6036,-4.6033,-4.609,-4.6097,-4.6117,-4.6206,-4.6209,-4.6138,-4.6142,-4.6144,-4.6145,0,0,0,0,0,0,0,-4.587,-4.5882,-4.6011,-4.5981,-4.5982,-4.5975,-4.5983,-4.6042,-4.6066,-4.602,-4.6019,-4.6029,-4.609,-4.6112,-4.6119,-4.621,-4.6138,-4.6143,-4.6146,-4.6148,-4.6365,-4.6367,0,0,0,0,0,0,-4.5864,-4.5878,-4.6008,-4.6013,-4.5922,-4.598,-4.599,-4.6022,-4.6066,-4.607,-4.6031,-4.6028,-4.6104,-4.6113,-4.6122,-4.6216,-4.6144,-4.6149,-4.6152,-4.6362,-4.6365,-4.6368,0,0,0,0,0,0,-4.586,-4.5876,-4.6005,-4.5945,-4.5961,-4.5986,-4.6022,-4.6025,-4.6047,-4.6074,-4.6078,-4.6049,-4.6103,-4.6114,-4.6182,-4.6219,-4.6151,-4.6156,-4.6359,-4.6363,-4.6366,-4.6408,0,0,0,0,0,0,-4.5855,-4.5875,-4.5907,-4.5946,-4.5965,-4.6066,-4.6025,-4.6028,-4.6057,-4.6053,-4.6092,-4.6096,-4.6102,-4.6174,-4.6187,-4.6225,-4.616,-4.6356,-4.6361,-4.6365,-4.6403,-4.6412,-4.642,0,0,0,0,0,-4.5849,-4.5915,-4.5909,-4.5925,-4.6006,-4.6068,-4.6079,-4.6085,-4.606,-4.6091,-4.6108,-4.6095,-4.6213,-4.6181,-4.6196,-4.6236,-4.6353,-4.6359,-4.6365,-4.6399,-4.6411,-4.642,0,0,0,0,0,0,-4.5878,-4.592,-4.5914,-4.5995,-4.6029,-4.6065,-4.6105,-4.6097,-4.6137,-4.6132,-4.6137,-4.6146,-4.6214,-4.6232,-4.6196,-4.6314,-4.6279,-4.6288,-4.63,-4.6311,-4.632,-4.6313,-4.6165,0,0,0,0,0,-4.5895,-4.5944,-4.5977,-4.6045,-4.6062,-4.6081,-4.6108,-4.611,-4.6144,-4.6158,-4.618,-4.6212,-4.6255,-4.6284,-4.6327,-4.6405,-4.6412,-4.644,-4.6448,-4.6455,-4.6463,-4.6503,-4.6515,-4.6387,-4.6387,-4.6387,0,0,-4.5928,-4.5957,-4.5988,-4.6052,-4.6078,-4.6126,-4.6093,-4.6146,-4.6181,-4.6165,-4.623,-4.6247,-4.6283,-4.6356,-4.6389,-4.6373,-4.6499,-4.6463,-4.6468,-4.6472,-4.651,-4.6522,-4.6533,-4.6391,-4.639,-4.6389,0,0,-4.6014,-4.6042,-4.6101,-4.6127,-4.6167,-4.6179,-4.6193,-4.623,-4.6241,-4.6307,-4.6295,-4.6336,-4.6412,-4.6437,-4.646,-4.6553,-4.6541,-4.6566,-4.6611,-4.665,-4.666,-4.6669,-4.67,-4.6711,-4.6573,-4.6573,-4.6573,0,-4.605,-4.6125,-4.6132,-4.6185,-4.6213,-4.6201,-4.6259,-4.6284,-4.6335,-4.6353,-4.6334,-4.6428,-4.6452,-4.6529,-4.6551,-4.6571,-4.6585,-4.6561,-4.6658,-4.6667,-4.6676,-4.6705,-4.6717,-4.6576,-4.6576,-4.6576,-4.6575,0,-4.6166,-4.6217,-4.626,-4.631,-4.6342,-4.6398,-4.6411,-4.6442,-4.644,-4.6453,-4.6518,-4.6546,-4.6592,-4.661,-4.661,-4.6687,-4.6675,-4.6657,-4.6622,-4.669,-4.6718,-4.6729,-4.658,-4.6579,-4.6578,-4.6577,0,0,-4.6273,-4.6326,-4.6341,-4.6363,-4.6405,-4.6444,-4.6497,-4.6544,-4.6569,-4.6604,-4.6647,-4.6711,-4.6694,-4.672,-4.6721,-4.6756,-4.6824,-4.6733,-4.6734,-4.6748,-4.6908,-4.692,-4.6933,-4.6817,-4.6819,-4.6821,-4.6904,0,-4.6361,-4.6458,-4.6464,-4.655,-4.6596,-4.6585,-4.6631,-4.6661,-4.6673,-4.6712,-4.6725,-4.677,-4.6745,-4.676,-4.6794,-4.6809,-4.6856,-4.6803,-4.6855,-4.6857,-4.6845,-4.6948,-4.6962,-4.7039,-4.6915,-4.6917,-4.6919,0,-4.6477,-4.6516,-4.6607,-4.6641,-4.666,-4.6702,-4.6743,-4.6782,-4.6813,-4.682,-4.6848,-4.6844,-4.6896,-4.686,-4.693,-4.6893,-4.6915,-4.6925,-4.6928,-4.6932,-4.6891,-4.6953,-4.7065,-4.7075,-4.6936,-4.6935,-4.6933,0,-4.6544,-4.6619,-4.6683,-4.6702,-4.6743,-4.6772,-4.679,-4.682,-4.6846,-4.6882,-4.6898,-4.6939,-4.6961,-4.6992,-4.6998,-4.6971,-4.7067,-4.7032,-4.7072,-4.7072,-4.7092,-4.709,-4.7207,-4.7108,-4.7108,-4.7108,-4.7108,0,-4.6641,-4.6696,-4.6713,-4.6752,-4.6812,-4.6818,-4.6877,-4.6893,-4.6919,-4.6959,-4.6952,-4.6989,-4.6995,-4.7033,-4.7038,-4.7093,-4.7104,-4.7109,-4.7109,-4.7109,-4.7108,-4.7122,-4.7116,-4.7111,-4.711,-4.711,-4.7109,0,-4.6726,-4.674,-4.6807,-4.6841,-4.685,-4.6893,-4.692,-4.6956,-4.6967,-4.7017,-4.7029,-4.7046,-4.709,-4.7099,-4.7151,-4.7154,-4.722,-4.7215,-4.7209,-4.7208,-4.7247,-4.7242,-4.7375,-4.7391,-4.7284,-4.7285,-4.7286,0,-4.6786,-4.6829,-4.6866,-4.6893,-4.6912,-4.6956,-4.6982,-4.6989,-4.7016,-4.7055,-4.7085,-4.7128,-4.7163,-4.7233,-4.7249,-4.7287,-4.7283,-4.7326,-4.7288,-4.7286,-4.7281,-4.7278,-4.7281,-4.7333,-4.7335,-4.7335,-4.7336,0,-4.6891,-4.6895,-4.6935,-4.6977,-4.7009,-4.7042,-4.7073,-4.7095,-4.7105,-4.7136,-4.7182,-4.7209,-4.7261,-4.7303,-4.7341,-4.7357,-4.7347,-4.7348,-4.7359,-4.7358,-4.7352,-4.7354,-4.7227,-4.7345,-4.7344,-4.7343,-4.7343,-4.7343,-4.6964,-4.7,-4.7032,-4.7076,-4.71,-4.7129,-4.7163,-4.7178,-4.7217,-4.7261,-4.7261,-4.731,-4.7338,-4.7388,-4.7407,-4.7443,-4.7429,-4.7445,-4.7449,-4.7453,-4.7455,-4.7348,-4.745,-4.745,-4.745,-4.745,-4.7449,0,-4.7067,-4.7086,-4.7127,-4.7171,-4.7204,-4.7194,-4.7227,-4.7255,-4.7298,-4.7326,-4.736,-4.741,-4.745,-4.7468,-4.7507,-4.7533,-4.7529,-4.7542,-4.754,-4.7543,-4.7467,-4.7453,-4.7544,-4.7544,-4.7544,-4.7544,-4.7544,-4.7544,-4.7124,-4.7184,-4.7192,-4.7262,-4.728,-4.7329,-4.7348,-4.7373,-4.7395,-4.7452,-4.7486,-4.7498,-4.752,-4.756,-4.7596,-4.76,-4.7613,-4.7628,-4.763,-4.7558,-4.7549,-4.7539,-4.7526,-4.7632,-4.7632,-4.7703,-4.7704,-4.7704]}]]